Volver al catálogo

USA 331

ActivoMilitarVLEO
NORAD 52892·PAYLOAD·🇺🇸 United States

Lanzado Jun 19, 2022 desde Cape Canaveral Space Force Station

Loading…

Próximos Pases (próximas 24 horas)

TLE

ObsoletoSource: Mike McCants

Época: Jan 2, 2025, 18:14 UTC

1 52892U 22064E   25002.76038917 0.00000150  00000-0  82725-5 0    08
2 52892  53.0074 332.9962 0007211 194.5820 165.4178 15.13447596    08

Sigue USA 331 en tiempo real con AllMySat

Download on the App Store